User: anonymous   Login
Location: Augustenthal
(51.7167°N, 10.2833°E)
Time: 00:44:33
(UTC+00:00)
Language:

Cosmos 1707 Rocket - Orbit

View from above orbital plane
View from above orbital plane
View from above satellite
View from above satellite

Ground track
Ground track

The orbit data is extracted from the following two-line orbital elements,

1 16327U 85113B   21213.50969264  .00000085  00000-0  73498-5 0  9996
2 16327  82.5357 124.0747 0020406  62.5190 110.1737 14.83516079904042
Epoch (UTC): 01 August 2021 12:13:57
Eccentricity: 0.0020406
inclination: 82.5357°
perigee height: 604 km
apogee height: 632 km
right ascension of ascending node: 124.0747°
argument of perigee: 62.5190°
revolutions per day: 14.83516079
mean anomaly at epoch: 110.1737°
orbit number at epoch: 90404

The dashed part of the orbit path shows where the satellite is in the earth's shadow,  

DLR